Powrót do katalogu

STARLINK-5424

AktywnyŁącznośćVLEO
NORAD 54811·PAYLOAD·🇺🇸 United States

Wystrzelony Dec 17, 2022 z Cape Canaveral Space Force Station

Loading…

Następne Przeloty (najbliższe 24 godziny)

TLE

ŚwieżeSource: CelesTrak SupGP

Epoka: Sep 14, 2026, 21:45 UTC

1 54811C 22175BF  26257.90673611  .00041670  00000+0  12313-2 0  2577
2 54811  53.1576 243.5182 0001454  92.4517 315.3676 15.34366567    13

Śledź STARLINK-5424 w czasie rzeczywistym z AllMySat

Download on the App Store